Regional Weather Roundup
Issued by NWS

Home | Current Version | Previous Version | Text Only | Print | Product List | Glossary On
Versions: 1 2 3 4 5 6 7 8 9 10 11 12 13 14 15 16 17 18 19 20 21 22 23 24 25 26 27
000
ASUS42 KTBW 250210
RWRFL
FLORIDA REGIONAL WEATHER ROUNDUP
NATIONAL WEATHER SERVICE TAMPA BAY RUSKIN FL
1000 PM EDT FRI OCT 24 2014

NOTE: "FAIR" INDICATES FEW OR NO CLOUDS BELOW 12,000 FEET WITH NO
SIGNIFICANT WEATHER AND/OR OBSTRUCTIONS TO VISIBILITY.


FLZ001>010-012>015-112-114-115-250300-
PANHANDLE FLORIDA

CITY           SKY/WX    TMP DP  RH WIND       PRES   REMARKS
PENSACOLA      CLEAR     63  45  51 N3        30.04R
PENSACOLA NAS  CLEAR     56  50  80 NW5       30.04R
MILTON NAS     CLEAR     59  44  57 NW6       30.05R
CRESTVIEW      CLEAR     51  49  92 CALM      30.06R
DUKE FIELD     CLEAR     53  48  81 CALM      30.04R
VALPARAISO     CLEAR     57  47  68 NW2       30.04R
MARY ESTHER    CLEAR     56  49  77 N5        30.03R
PANAMA CITY    FAIR      55  49  80 NW3       30.02R
TYNDALL AFB    CLEAR     58  52  81 CALM      30.03R
APALACHICOLA   CLEAR     60  52  74 CALM      30.02R

STATION/POSITION SKY/WX   TEMP    WIND        PRES    WAVE   SWELL
                          AIR SEA DIR/SP/G            HT/PER HT/PER
                          (F)     (DEG/KT/KT) (MB)    (FT/S) (FT/S)
30.1N   87.6W              74 78  350/ 16/ 17 1017.0R   2/ 3
29.2N   88.2W              72 78  340/ 14/ 17 1018.3R   2/ 7   2/ 7
28.8N   86.0W              72 80   20/ 12/ 14 1016.5    2/ 6   2/ 6
PANAMA CITY BEAC           67 77  320/  7/  7 1016.6R
CAPE SAN BLAS    NOT AVBL
TOWER C                    70     320/  7/  8 1016.5R
28.5N   84.5W              72 80   30/  8/ 12 1015.7R   2/ 4   2/ 5

$$
FLZ011-016>038-118-127-128-134-139-239-250300-
NORTH FLORIDA

CITY           SKY/WX    TMP DP  RH WIND       PRES   REMARKS
MARIANNA       LGT RAIN  56  51  84 CALM      30.02R
TALLAHASSEE    CLEAR     55  47  74 CALM      30.01R
PERRY          CLEAR     54  52  94 W3        30.02R
CROSS CITY       N/A     54  50  86 CALM      30.00R
LAKE CITY      FAIR      52  50  93 CALM      30.00S
GAINESVILLE    CLEAR     57  53  86 W3        30.00R
MAYPORT NAS    CLEAR     65  55  70 N5        30.00R
JACKSONVILLE   CLEAR     55  55 100 CALM      30.00R
JAX NAS        CLEAR     68  55  63 NE5       30.01R
JAX CRAIG      CLEAR     58  54  86 CALM      30.01R
JAX CECIL      CLEAR     52  50  93 CALM      30.01R
FERNANDINA BEA FAIR      63  55  77 CALM      30.00R
ST AUGUSTINE   CLEAR     63  56  78 NW7       30.01R

STATION/POSITION SKY/WX   TEMP    WIND        PRES    WAVE   SWELL
                          AIR SEA DIR/SP/G            HT/PER HT/PER
                          (F)     (DEG/KT/KT) (MB)    (FT/S) (FT/S)
SHELL POINT                68     270/  4/  6   N/A
KEATON BEACH               64     360/  3/  4 1016.4R
CEDAR KEY                  65     360/  4/  5 1016.2R
FERNANDINA                 66 74   CALM  /  2 1015.5R
30.7N   81.3W                 76                N/A     2/11   2/11
MAYPORT                    68 76   30/  4/  5   N/A
31.4N   80.9W              69 75   20/  6/  6 1016.0R   2/11   2/11
ST AUGUSTINE               65     320/  8/ 10 1016.4R

$$
FLZ040-043>046-052-053-057-058-063-144-250300-
INTERIOR CENTRAL FLORIDA

CITY           SKY/WX    TMP DP  RH WIND       PRES   REMARKS
OCALA          CLEAR     59  52  77 N5        30.01R
THE VILLAGES     N/A     66  57  72 N5        29.90R
LEESBURG       CLEAR     65  57  75 NE8       30.00R
SANFORD        MOCLDY    69  58  67 N9        29.97R
ORLANDO EXEC   PTCLDY    70  59  68 N7        29.98R
ORLANDO INTL   PTCLDY    68  59  73 N10       29.97R
KISSIMMEE      CLEAR     72  57  60 CALM      29.97R
WINTER HAVEN   CLEAR     65  57  75 NE7       29.98R
LAKELAND       PTCLDY    66  57  72 NE7       29.97R
BARTOW         FAIR      66  55  68 NE7       29.97R
OKEECHOBEE       N/A     64  59  82 MISG        N/A

$$
FLZ041-047-054-059-064-141-147-250300-
EAST CENTRAL FLORIDA

CITY           SKY/WX    TMP DP  RH WIND       PRES   REMARKS
DAYTONA BEACH  MOCLDY    66  58  75 NW7       29.98R
DELAND         MOCLDY    64  57  77 NW7       30.00R
JFK SPACE CTR  CLOUDY    71  58  62 N6        29.95R
CAPE CANAVERAL PTCLDY    72  57  59 NE8       29.93R
PATRICK AFB    CLOUDY    75  59  57 N13       29.93R
MELBOURNE      MOCLDY    75  58  55 NE6       29.93R
VERO BEACH     CLEAR     71  59  65 NE8       29.91S
FT PIERCE      CLEAR     71  58  63 N5        29.91R
STUART         MOCLDY    73  63  68 NE9       29.91R

STATION/POSITION SKY/WX   TEMP    WIND        PRES    WAVE   SWELL
                          AIR SEA DIR/SP/G            HT/PER HT/PER
                          (F)     (DEG/KT/KT) (MB)    (FT/S) (FT/S)
28.5N   80.2W              75 80   50/ 12/ 17 1013.6R
28.9N   78.5W              76 82   50/ 10/ 14 1013.7R   3/ 9   2/ 9
TRIDENT PIER               69 79   20/  3/  4 1013.3S
28.4N   80.5W                 78                N/A     2/11
27.6N   80.2W                 80                N/A     4/ 6   2/12

$$
FLZ050-056-061-142-242-148-248-149-249-151-251-155-255-
160-260-250300-
WEST CENTRAL FLORIDA

CITY           SKY/WX    TMP DP  RH WIND       PRES   REMARKS
CRYSTAL RIVER  FAIR      61  54  77 CALM      30.00R
INVERNESS      FAIR      63  54  72 CALM      30.00R
BROOKSVILLE    CLEAR     63  56  78 N6        30.00R
ZEPHYRHILLS      N/A     61  57  88 N5        29.99R
CLEARWATER     PTCLDY    71  62  73 N13       29.97R
TAMPA INTL     PTCLDY    67  60  78 N8        29.98R
PLANT CITY     CLEAR     68  59  73 N3        29.99R
MACDILL AFB    CLEAR     67  62  82 NE7       29.97R
ST PETERSBURG  CLEAR     72  62  71 N8        29.95R
SARASOTA       CLEAR     70  61  73 N5        29.93R
VENICE           N/A     70  59  68 MISG      29.95R

STATION/POSITION SKY/WX   TEMP    WIND        PRES    WAVE   SWELL
                          AIR SEA DIR/SP/G            HT/PER HT/PER
                          (F)     (DEG/KT/KT) (MB)    (FT/S) (FT/S)
CEDAR KEY                  65     360/  4/  5 1016.2R
28.5N   84.5W              72 80   30/  8/ 12 1015.7R   2/ 4   2/ 5
27.3N   84.3W                 82                N/A     3/ 5
CLEARWATER BEACH NOT AVBL
MIDDLE TAMPA BAY           72      10/ 16/ 18 1014.5R
VENICE                     71 79   40/  7/  9 1013.4R

$$
FLZ066-069-070-075>078-162-262-165-265-250300-
SOUTHWEST FLORIDA AND KEYS

CITY           SKY/WX    TMP DP  RH WIND       PRES   REMARKS
PUNTA GORDA    CLEAR     67  60  78 NE7       29.94R
FT MYERS       CLEAR     71  60  68 NE8       29.91R
SOUTHWEST INTL CLEAR     70  59  68 NE10      29.91R
NAPLES         CLEAR     73  63  70 NE10      29.90R
MARATHON       PTCLDY    77  72  84 N13       29.84R
KEY WEST NAS   PTCLDY    79  70  74 NE15G22   29.86R
KEY WEST INTL  CLEAR     79  72  79 NE12G22   29.87R

STATION/POSITION SKY/WX   TEMP    WIND        PRES    WAVE   SWELL
                          AIR SEA DIR/SP/G            HT/PER HT/PER
                          (F)     (DEG/KT/KT) (MB)    (FT/S) (FT/S)
VENICE                     71 79   40/  7/  9 1013.4R
NAPLES                     74 82   30/  8/ 14 1012.9R
26.0N   85.6W              77 81   10/ 14/ 19 1014.8R   5/ 8   3/ 8
DRY TORTUGAS               80      20/ 20/ 23 1011.2R
NW FL BAY                  79      30/ 15/ 17 1010.3R
SAND KEY                   79      30/ 18/ 20 1011.0R
SOMBRERO KEY               78      20/ 18/ 19 1011.0R
LONG KEY                   77 78   20/ 18/ 21 1011.3R
MOLASSES REEF              77 82   10/ 17/ 19 1009.9R

$$
FLZ067-068-071>074-168-172>174-250300-
SOUTHEAST FLORIDA

CITY           SKY/WX    TMP DP  RH WIND       PRES   REMARKS
W PALM BEACH   MOCLDY    77  66  68 N13       29.87R
FT LAUDER-EXEC CLOUDY    76  68  76 N7        29.86R
FT LAUDERDALE  MOCLDY    78  69  73 NE15G21   29.85R
POMPANO BEACH  MOCLDY    80  67  64 NE18G25   29.86R
PEMBROKE PINES MOCLDY    75  69  81 N8        29.87R
OPA LOCKA      LGT RAIN  76  69  79 N9        29.87R
MIAMI          MOCLDY    76  69  79 N7        29.86R
WEST KENDALL   MOCLDY    77  69  76 N12       29.86R
HOMESTEAD      PTCLDY    74  70  86 N8        29.85R

STATION/POSITION SKY/WX   TEMP    WIND        PRES    WAVE   SWELL
                          AIR SEA DIR/SP/G            HT/PER HT/PER
                          (F)     (DEG/KT/KT) (MB)    (FT/S) (FT/S)
PORT EVERGLADES            79      30/ 13/ 19 1010.8
VIRGINIA KEY               78 80   40/  7/ 17 1010.9S
LAKE WORTH                 78 80   20/ 22/ 25 1011.1R
FOWEY ROCKS                80 82   30/ 27/ 28 1010.4R
SETTLEMENT POINT           77      60/ 16/ 17 1011.8R

$$




USA.gov is the U.S. government's official web portal to all federal, state and local government web resources and services.